Wetbulb
71.13 73.29 75.29 75.71 75.75 76.14 75.91 76.08 75.85 75.83 75.65 75.44 75.00 74.96 74.91 75.16 75.14 74.69 75.02 74.75 74.21 74.08 73.80 73.97 74.88 74.85 75.41 75.42 75.93 75.57 75.24 75.34 75.26 74.96 75.39 75.47 75.29 74.93 74.82 74.68 74.71 73.52 74.49
72.45 74.09 75.80 76.08 76.11 76.13 76.18 76.31 75.99 75.89 75.24 75.07 74.59 74.44 74.84 75.17 75.04 74.99 74.34 74.91 74.21 72.75 73.00 74.37 74.45 74.09 74.80 75.91 76.33 75.78 75.40 75.10 75.16 75.16 75.35 75.51 74.76 74.24 73.91 73.66 74.17 73.50 73.32
72.99 73.92 75.15 76.75 76.30 76.02 76.09 76.31 76.12 75.73 75.69 75.32 75.02 75.18 75.45 75.15 76.19 75.64 75.65 75.28 74.88 73.57 73.32 73.70 74.16 73.61 75.45 76.05 75.93 75.98 75.73 76.28 76.08 75.94 75.54 73.16 73.14 74.46 74.38 74.27 73.85 73.66 73.08
73.16 73.41 74.39 76.78 76.55 76.22 76.23 76.27 76.17 76.02 76.06 75.54 75.13 75.17 75.34 75.14 75.51 75.44 75.34 75.02 74.39 73.42 72.95 74.20 74.52 75.40 76.00 75.87 75.76 75.51 75.91 75.88 75.60 75.21 72.75 72.79 73.22 74.41 73.91 73.80 73.98 73.68 73.26
72.85 73.42 74.11 76.38 76.25 76.22 76.33 76.42 76.43 76.16 76.22 75.88 75.71 75.49 75.38 75.74 75.98 75.42 74.86 74.10 73.73 72.31 74.20 75.01 75.48 76.04 75.99 75.49 75.84 76.01 75.59 75.09 74.70 72.99 71.98 72.54 73.32 73.69 73.72 73.50 73.58 73.44 73.13
72.04 72.77 75.69 76.30 75.93 76.18 76.65 76.53 76.34 76.40 76.46 76.24 75.85 75.63 75.61 75.89 76.08 75.77 74.58 74.50 74.98 75.16 75.81 76.06 76.06 76.06 75.90 75.82 76.01 75.93 76.08 75.51 74.11 71.83 71.68 73.69 73.15 74.24 73.63 73.50 73.39 73.25 72.92
71.51 73.18 74.70 77.05 76.65 76.64 76.72 76.70 76.76 76.75 76.67 76.43 76.10 75.82 75.70 75.86 75.87 75.26 75.44 75.96 76.55 76.32 76.01 75.90 76.09 75.85 75.41 75.51 75.46 75.24 74.60 74.99 71.98 71.99 72.51 72.72 73.41 74.75 74.41 73.64 73.33 73.28 73.00
72.29 73.62 74.52 76.64 76.65 76.80 76.43 76.65 76.48 76.65 76.50 76.59 76.26 76.04 75.84 76.02 76.10 75.97 75.89 77.21 77.11 76.88 76.46 75.98 75.93 75.84 75.48 75.21 74.68 74.05 74.30 74.82 73.28 72.18 72.13 72.82 74.12 74.82 73.69 74.10 74.09 73.49 73.11
73.70 73.10 73.46 74.25 75.33 76.82 76.73 76.67 76.67 76.24 76.56 76.65 76.58 76.74 76.94 76.58 76.54 76.51 76.45 76.81 77.05 76.66 76.02 75.79 75.49 75.27 75.07 74.44 74.27 75.07 76.18 75.34 72.06 72.32 72.12 73.02 74.92 73.93 73.55 73.66 73.66 74.16 73.53
72.76 72.92 72.34 72.80 73.70 73.26 74.32 76.39 76.63 76.62 76.66 76.69 76.61 76.56 76.99 76.75 76.81 76.50 76.31 76.81 76.68 75.88 75.60 75.77 75.16 75.10 75.04 74.16 74.33 74.77 75.63 74.96 71.91 72.36 72.84 73.03 74.82 75.21 74.46 73.90 73.98 73.49 73.80
71.65 72.17 72.15 72.29 72.63 73.03 73.39 74.82 75.98 76.38 76.52 76.30 76.29 76.51 76.10 74.06 74.34 74.75 76.34 76.60 76.15 75.74 75.41 75.79 75.48 75.23 75.09 74.92 75.03 74.96 74.96 72.74 71.65 72.15 72.74 73.85 75.24 75.36 75.18 74.97 74.32 73.64 73.80
69.80 71.37 72.51 72.24 72.08 72.56 74.07 73.72 73.29 74.17 73.83 73.84 74.17 74.27 74.17 73.78 74.16 74.75 75.38 75.99 76.24 75.96 75.21 75.16 75.15 75.24 74.92 73.64 72.97 73.57 73.22 73.85 72.62 72.64 72.54 74.29 75.35 75.88 75.37 75.28 74.81 74.25 73.96
69.50 70.83 72.05 72.16 71.90 71.69 72.39 72.44 72.43 72.54 72.72 72.74 73.37 73.52 73.92 73.56 73.52 74.42 74.06 74.10 74.42 75.51 74.45 74.51 74.02 73.92 73.60 73.10 72.78 72.40 71.85 71.57 72.62 72.51 72.97 74.96 75.48 76.15 76.06 75.88 75.39 75.35 74.73
68.40 69.87 71.77 71.88 71.20 71.11 71.84 72.03 71.83 72.15 72.29 72.06 72.54 72.72 72.43 72.43 72.14 72.55 73.14 73.34 73.47 74.11 73.94 73.88 73.47 73.55 73.30 73.42 73.30 72.75 72.31 71.84 72.61 72.54 72.62 75.49 76.54 76.10 76.23 76.56 76.23 75.97 75.22
67.10 68.77 70.55 70.98 70.60 70.68 70.98 71.50 71.57 71.66 72.14 72.24 72.48 72.34 71.98 71.61 71.71 72.22 71.67 72.57 72.89 73.48 73.31 73.07 73.05 72.37 72.09 72.78 73.23 72.93 72.65 72.43 72.10 71.80 71.83 73.80 76.87 76.77 76.73 77.30 76.87 76.12 75.60
67.25 67.35 69.85 70.33 70.13 69.62 70.66 70.97 70.94 71.22 71.73 71.47 71.86 72.04 72.40 71.95 71.73 72.01 72.08 71.73 72.16 72.87 73.22 73.17 72.50 72.01 71.64 71.96 72.03 72.61 72.70 72.36 72.26 72.86 70.88 70.99 74.51 77.29 76.93 77.30 76.92 76.77 75.96
66.81 68.21 69.23 69.59 69.52 69.25 70.74 70.89 71.10 71.22 71.40 71.50 71.34 71.96 71.81 72.13 71.79 72.08 71.90 71.76 71.85 72.76 72.79 72.72 72.28 72.19 71.79 72.43 72.33 72.97 73.05 73.35 73.78 73.72 73.40 72.57 71.75 77.26 77.49 77.25 77.29 76.92 77.18
67.19 68.28 68.87 70.86 69.57 69.50 70.50 71.31 71.05 71.05 70.87 71.54 71.72 72.07 72.26 72.23 72.46 72.21 72.09 72.02 72.86 72.69 72.64 72.21 71.91 71.86 71.83 72.36 72.04 72.26 72.96 73.52 74.22 74.44 73.79 73.43 73.03 74.21 76.71 77.25 76.97 76.76 77.30
67.61 67.54 68.08 68.97 69.22 70.06 70.69 71.34 70.57 70.28 70.47 71.51 71.66 72.28 72.80 72.79 73.35 72.43 72.57 73.47 73.24 72.65 72.22 72.26 72.19 71.90 71.54 71.87 71.80 72.05 71.87 73.26 73.31 73.45 73.92 73.50 72.70 73.92 75.00 76.03 76.57 76.34 76.47
67.62 67.98 68.54 68.85 70.51 70.74 70.98 71.08 70.88 70.46 69.75 71.14 71.76 72.62 73.15 72.36 72.96 72.93 72.57 72.93 73.13 72.58 72.58 72.40 72.01 71.80 71.59 71.45 71.03 72.34 72.41 71.81 71.06 71.14 72.15 74.36 74.36 73.89 74.52 74.62 75.72 74.84 76.09
68.32 68.21 68.77 68.96 70.22 70.37 69.78 69.22 68.93 69.08 70.02 70.62 71.88 72.39 73.07 73.26 73.87 73.48 72.27 72.74 73.05 72.35 72.28 72.74 71.90 70.80 70.33 72.11 71.94 70.67 70.39 70.43 69.88 70.48 71.37 72.21 72.70 73.99 74.02 74.46 74.45 74.43 74.96
68.29 68.66 68.90 69.10 69.81 70.66 70.48 69.66 69.62 69.99 70.92 71.02 71.97 73.23 73.25 73.30 73.26 73.14 72.27 72.73 72.46 72.28 72.44 72.67 72.31 71.16 71.61 72.16 70.44 69.20 67.69 69.10 70.48 69.58 69.43 70.86 70.49 72.40 73.01 73.44 73.62 73.66 73.16
67.78 68.41 69.19 69.51 69.82 70.86 70.91 70.51 71.51 71.65 71.33 70.70 70.46 70.90 70.93 72.08 72.11 73.13 73.25 72.98 72.55 73.29 72.97 72.55 72.20 71.32 70.64 70.92 71.88 70.09 65.03 64.64 65.95 69.24 68.93 69.13 69.99 70.53 71.22 72.32 72.39 72.94 72.64
67.45 68.85 69.66 69.84 70.32 70.84 70.84 70.04 70.30 69.88 68.45 69.07 69.22 70.21 69.92 71.05 72.93 73.97 73.76 73.43 73.35 73.44 72.86 72.93 72.58 71.96 70.84 68.93 70.97 71.86 70.34 67.70 66.24 65.79 68.64 69.57 69.47 69.72 71.51 71.45 71.37 71.33 71.55
67.86 68.15 68.78 69.39 70.24 71.11 70.91 70.73 70.13 69.30 69.25 70.08 70.19 69.26 69.95 70.99 73.75 73.11 72.97 72.25 71.86 72.19 71.39 71.35 70.98 71.32 71.40 70.97 70.21 70.61 70.63 69.90 69.11 67.38 65.90 66.55 69.08 70.15 70.34 70.56 70.89 71.62 70.90
67.37 68.17 69.43 69.15 69.84 70.85 70.97 70.67 70.85 69.47 69.16 70.14 69.91 69.05 70.22 71.47 72.26 72.21 71.88 70.39 68.81 68.90 68.88 68.39 68.46 68.52 70.17 70.93 70.64 70.43 69.37 68.52 66.64 67.63 66.95 67.48 66.12 68.56 66.35 69.39 70.50 71.57 72.42
MSLP
1012.04 1011.91 1011.92 1011.89 1011.91 1011.90 1011.87 1011.83 1011.86 1011.90 1012.01 1011.83 1011.98 1011.84 1011.97 1012.21 1012.52 1012.94 1013.29 1013.56 1013.88 1014.20 1014.62 1014.81 1014.93 1014.95 1015.02 1014.99 1015.23 1015.48 1015.71 1015.87 1016.03 1016.19 1016.32 1016.68 1016.78 1016.85 1016.95 1017.15 1017.20 1017.15 1017.14
1011.98 1011.95 1012.07 1011.98 1012.04 1012.07 1012.10 1012.12 1012.09 1012.18 1012.21 1012.24 1012.06 1012.10 1012.15 1012.58 1012.74 1013.21 1013.42 1013.99 1014.23 1014.69 1014.89 1015.14 1015.36 1015.38 1015.42 1015.39 1015.59 1015.83 1016.02 1016.05 1016.23 1016.37 1016.45 1016.75 1016.92 1017.07 1017.25 1017.26 1017.41 1017.47 1017.58
1012.25 1012.23 1012.25 1012.22 1012.22 1012.35 1012.44 1012.41 1012.39 1012.40 1012.44 1012.41 1012.46 1012.46 1012.44 1012.76 1010.10 1013.85 1013.34 1014.41 1014.83 1015.24 1015.36 1015.48 1015.65 1015.68 1015.75 1015.76 1015.91 1016.02 1016.22 1016.26 1016.45 1016.66 1016.87 1017.15 1017.22 1017.17 1017.24 1017.42 1017.53 1017.65 1017.76
1012.46 1012.60 1012.54 1012.43 1012.46 1012.60 1012.58 1012.61 1012.64 1012.59 1012.75 1012.91 1013.03 1013.01 1012.91 1013.15 1013.51 1013.94 1014.41 1014.91 1015.50 1015.83 1015.75 1015.74 1015.79 1015.88 1015.93 1016.01 1016.20 1016.35 1016.51 1016.70 1016.86 1017.00 1017.23 1017.30 1017.38 1017.41 1017.52 1017.61 1017.67 1017.73 1017.90
1012.83 1012.84 1012.77 1012.78 1012.84 1012.82 1012.76 1012.78 1012.79 1012.88 1013.14 1013.35 1013.49 1013.53 1013.50 1013.55 1013.80 1014.10 1014.89 1015.60 1015.87 1015.96 1015.73 1015.84 1016.02 1016.04 1016.15 1016.26 1016.55 1016.62 1016.75 1017.04 1017.25 1017.43 1017.62 1017.61 1017.72 1017.77 1017.79 1017.78 1017.75 1017.86 1018.08
1013.07 1013.07 1013.02 1013.07 1013.14 1013.14 1013.09 1013.05 1013.12 1013.29 1013.54 1013.79 1013.96 1014.12 1014.11 1014.28 1014.48 1014.87 1015.40 1015.65 1015.62 1016.01 1015.87 1015.97 1016.19 1016.24 1016.46 1016.68 1016.89 1016.92 1016.97 1017.27 1017.63 1017.92 1017.99 1017.92 1018.03 1018.00 1018.00 1018.01 1018.01 1018.15 1018.28
1013.39 1013.34 1013.29 1013.25 1013.34 1013.36 1013.36 1013.43 1013.56 1013.66 1013.94 1014.24 1014.42 1014.57 1014.68 1014.86 1015.12 1015.30 1015.56 1015.66 1015.56 1015.80 1015.99 1016.29 1016.47 1016.60 1016.85 1017.06 1017.09 1017.15 1017.23 1017.38 1017.78 1018.10 1018.34 1018.29 1018.35 1018.27 1018.12 1018.23 1018.31 1018.53 1018.64
1013.73 1013.64 1013.50 1013.41 1013.51 1013.57 1013.72 1013.82 1013.96 1014.11 1014.35 1014.60 1014.71 1014.83 1015.15 1015.37 1015.51 1015.74 1015.88 1015.72 1015.85 1016.05 1016.32 1016.63 1016.77 1016.97 1017.17 1017.24 1017.31 1017.35 1017.45 1017.43 1017.83 1018.15 1018.31 1018.50 1018.49 1018.45 1018.48 1018.55 1018.64 1018.76 1018.81
1013.86 1013.98 1013.89 1013.82 1013.80 1013.83 1014.00 1014.15 1014.32 1014.56 1014.74 1014.82 1014.96 1015.09 1015.29 1015.53 1015.76 1015.98 1016.08 1016.10 1015.90 1016.10 1016.64 1016.82 1017.10 1017.29 1017.36 1017.44 1017.48 1017.52 1017.30 1017.49 1018.00 1018.18 1018.28 1018.50 1018.48 1018.57 1018.69 1018.74 1018.86 1018.94 1019.07
1014.30 1014.28 1014.30 1014.30 1014.27 1014.31 1014.38 1014.43 1014.55 1014.81 1014.96 1015.05 1015.21 1015.44 1015.55 1015.70 1015.82 1016.05 1016.24 1016.52 1016.48 1016.57 1016.63 1016.92 1017.23 1017.45 1017.47 1017.50 1017.56 1017.63 1017.51 1017.63 1018.04 1018.28 1018.26 1018.41 1018.50 1018.43 1018.59 1018.84 1018.89 1019.01 1019.07
1014.55 1014.64 1014.54 1014.64 1014.69 1014.69 1014.68 1014.63 1014.80 1014.95 1015.22 1015.40 1015.45 1015.65 1015.90 1016.13 1016.22 1016.53 1016.47 1016.49 1016.61 1016.67 1016.85 1017.06 1017.30 1017.43 1017.52 1017.60 1017.60 1017.52 1017.50 1017.79 1017.98 1018.12 1018.15 1018.22 1018.40 1018.36 1018.36 1018.68 1018.94 1019.09 1019.15
1014.55 1014.64 1014.72 1014.74 1014.87 1014.86 1014.78 1014.96 1015.21 1015.36 1015.45 1015.74 1015.80 1016.06 1016.24 1016.40 1016.63 1016.72 1016.70 1016.65 1016.62 1016.76 1016.96 1017.01 1017.17 1017.29 1017.45 1017.81 1017.82 1017.76 1017.74 1017.84 1017.94 1018.05 1018.16 1018.20 1018.16 1018.24 1018.19 1018.49 1018.83 1019.05 1019.29
1014.51 1014.61 1014.69 1014.93 1014.93 1014.98 1014.94 1015.26 1015.50 1015.68 1015.78 1015.95 1016.13 1016.29 1016.37 1016.49 1016.58 1016.70 1016.85 1016.93 1016.97 1017.00 1017.11 1017.20 1017.28 1017.38 1017.53 1017.69 1017.84 1017.88 1017.82 1017.80 1017.78 1017.72 1017.63 1017.73 1017.89 1017.80 1018.00 1018.18 1018.55 1018.75 1019.09
1014.42 1014.43 1014.68 1014.83 1014.98 1015.08 1015.10 1015.29 1015.54 1015.72 1015.85 1015.96 1016.19 1016.37 1016.64 1016.81 1016.81 1016.90 1017.01 1017.03 1017.07 1017.13 1017.26 1017.27 1017.42 1017.45 1017.41 1017.44 1017.47 1017.64 1017.64 1017.70 1017.66 1017.58 1017.38 1017.27 1017.36 1017.53 1017.69 1017.86 1018.18 1018.40 1018.72
1014.23 1014.26 1014.42 1014.66 1015.02 1015.09 1015.27 1015.41 1015.56 1015.74 1015.78 1015.87 1015.94 1016.18 1016.45 1016.71 1016.94 1017.04 1017.06 1017.11 1017.20 1017.30 1017.38 1017.37 1017.31 1017.30 1017.25 1017.29 1017.32 1017.34 1017.28 1017.34 1017.34 1017.31 1017.12 1016.99 1017.01 1017.22 1017.40 1017.51 1017.69 1018.04 1018.31
1013.83 1014.07 1014.27 1014.58 1014.74 1015.04 1015.38 1015.46 1015.55 1015.63 1015.75 1015.91 1016.06 1016.04 1016.22 1016.39 1016.64 1016.79 1016.89 1017.00 1017.02 1017.04 1017.16 1017.30 1017.35 1017.29 1017.24 1017.29 1017.10 1016.99 1017.02 1016.99 1016.93 1016.88 1016.73 1016.59 1016.64 1016.76 1016.95 1017.20 1017.37 1017.51 1017.80
1013.32 1013.65 1014.06 1014.39 1014.50 1014.98 1015.20 1015.33 1015.59 1015.69 1015.79 1015.87 1015.92 1016.02 1016.11 1016.36 1016.59 1016.69 1016.75 1016.84 1016.66 1016.79 1017.00 1017.15 1017.17 1017.34 1017.38 1017.12 1017.02 1016.82 1016.82 1016.60 1016.53 1016.52 1016.40 1016.30 1016.19 1016.20 1016.42 1016.67 1016.92 1017.20 1017.43
1013.19 1013.49 1013.92 1014.26 1014.49 1014.77 1015.12 1015.28 1015.60 1015.77 1015.90 1015.94 1015.98 1015.96 1015.96 1016.04 1016.21 1016.45 1016.62 1016.59 1016.44 1016.64 1016.85 1017.06 1017.26 1017.33 1017.21 1017.14 1017.03 1016.65 1016.50 1016.41 1016.25 1016.11 1016.12 1016.12 1016.09 1015.95 1015.96 1016.25 1016.42 1016.71 1016.94
1012.60 1013.36 1013.81 1014.06 1014.37 1014.64 1014.97 1015.29 1015.56 1015.69 1015.83 1015.91 1016.00 1016.02 1016.04 1016.07 1016.11 1016.25 1016.19 1016.14 1016.19 1016.40 1016.62 1016.85 1017.16 1017.27 1017.12 1016.94 1016.99 1016.71 1016.57 1016.45 1016.33 1016.06 1015.88 1016.03 1016.18 1016.05 1015.99 1015.96 1015.95 1016.16 1016.45
1012.56 1013.09 1013.63 1014.03 1014.33 1014.77 1015.10 1015.39 1015.67 1015.73 1015.77 1015.87 1015.91 1015.97 1015.99 1016.03 1016.10 1016.25 1016.32 1016.25 1016.26 1016.55 1016.66 1016.87 1017.01 1017.09 1016.84 1016.95 1016.88 1016.61 1016.58 1016.45 1016.36 1016.25 1016.02 1015.82 1015.87 1015.78 1015.81 1015.92 1015.86 1015.86 1016.09
1012.60 1013.03 1013.35 1013.86 1014.25 1014.72 1015.32 1015.68 1015.76 1015.77 1015.81 1015.80 1015.77 1015.79 1015.80 1015.82 1015.90 1016.01 1016.21 1016.14 1016.06 1016.39 1016.58 1016.67 1016.76 1016.92 1016.87 1016.96 1016.78 1016.57 1016.51 1016.34 1016.13 1016.03 1015.91 1015.87 1015.72 1015.63 1015.60 1015.69 1015.90 1016.09 1016.05
1012.10 1012.63 1013.14 1013.51 1014.02 1014.47 1014.83 1015.23 1015.44 1015.48 1015.52 1015.55 1015.55 1015.56 1015.52 1015.65 1015.77 1015.89 1015.95 1016.05 1016.15 1016.23 1016.40 1016.46 1016.57 1016.72 1016.70 1016.69 1016.69 1016.79 1016.66 1016.30 1015.90 1015.90 1016.00 1015.89 1015.84 1015.67 1015.44 1015.45 1015.56 1015.62 1015.82
1011.93 1012.24 1012.60 1013.21 1013.68 1014.03 1014.52 1014.97 1015.29 1015.47 1015.56 1015.64 1015.71 1015.72 1015.74 1015.60 1015.58 1015.69 1015.64 1015.67 1015.90 1016.06 1016.19 1016.27 1016.24 1016.28 1016.45 1016.48 1016.49 1016.62 1016.74 1016.60 1016.47 1015.97 1015.78 1015.64 1015.68 1015.75 1015.50 1015.44 1015.49 1015.35 1015.57
1011.46 1011.89 1012.26 1012.79 1013.33 1013.62 1014.07 1014.60 1014.81 1015.09 1015.33 1015.50 1015.49 1015.51 1015.68 1015.61 1015.46 1015.36 1015.40 1015.50 1015.80 1016.02 1016.12 1016.09 1016.07 1016.21 1016.35 1016.43 1016.40 1016.38 1016.38 1016.51 1016.63 1016.48 1015.99 1015.60 1015.53 1015.70 1015.64 1015.47 1015.34 1015.11 1015.37
1010.96 1011.40 1011.88 1012.52 1013.30 1013.51 1013.71 1014.04 1014.63 1014.92 1015.00 1015.18 1015.44 1015.56 1015.68 1015.45 1015.46 1015.64 1015.60 1015.82 1016.15 1016.24 1016.29 1016.26 1016.22 1016.22 1016.13 1016.25 1016.16 1016.32 1016.40 1016.57 1016.72 1016.76 1016.43 1015.87 1015.50 1015.47 1015.46 1015.29 1014.97 1014.76 1015.02
1010.47 1011.10 1011.56 1012.33 1012.80 1013.24 1013.52 1013.83 1014.19 1014.63 1014.77 1014.91 1015.15 1015.64 1015.79 1015.79 1015.75 1015.57 1015.63 1015.84 1016.05 1016.21 1016.33 1016.39 1016.31 1016.25 1016.22 1016.27 1016.33 1016.43 1016.63 1016.80 1016.88 1016.97 1016.87 1016.41 1016.07 1015.38 1015.34 1015.19 1014.85 1014.66 1014.79
Wind_Speed
1 2 4 8 10 10 10 11 13 12 13 13 10 10 12 17 19 20 14 18 16 16 14 10 13 11 10 14 16 19 17 16 14 14 14 13 12 11 11 11 10 9 9
5 3 7 10 10 10 10 12 14 13 13 12 9 9 11 15 20 19 18 16 15 18 7 7 10 8 7 14 17 16 16 15 14 13 13 13 12 11 10 10 11 10 9
5 4 5 9 10 9 10 12 13 13 12 13 13 13 15 13 22 20 19 18 14 13 5 6 7 5 12 17 16 15 14 14 14 13 14 7 6 12 11 10 11 10 9
6 4 4 8 9 9 11 11 12 12 11 12 12 15 16 17 20 20 20 17 12 8 1 7 9 12 14 16 15 14 14 14 13 13 5 6 7 10 11 11 11 11 9
5 4 5 9 9 8 11 12 11 11 10 10 11 12 18 21 21 23 22 17 10 2 9 13 14 15 15 15 13 14 13 12 10 8 4 5 4 8 9 10 11 10 9
5 4 7 10 9 9 11 12 11 11 10 10 10 11 14 21 21 21 23 16 13 9 9 14 13 15 14 13 11 10 11 8 9 4 4 6 4 8 8 8 9 8 7
4 3 5 9 9 9 10 12 12 13 11 9 10 10 12 15 16 18 18 18 13 11 12 12 11 12 11 10 9 7 4 5 5 4 3 3 3 4 7 7 7 7 6
4 2 3 9 10 9 10 10 10 11 11 10 10 11 11 11 11 12 12 13 13 13 12 10 10 9 8 6 4 2 1 3 6 4 5 2 2 3 5 6 6 7 5
3 3 3 2 6 7 9 8 10 9 8 9 9 9 12 13 12 11 11 10 11 11 11 9 8 8 6 3 2 4 6 7 5 4 4 2 3 2 3 3 5 5 7
3 2 2 2 4 3 3 8 8 9 8 8 7 9 10 10 11 11 8 10 9 10 10 9 8 6 5 2 2 4 5 4 5 4 3 3 6 6 5 3 4 5 5
3 3 2 2 3 3 3 4 7 7 7 7 5 7 6 4 5 6 5 6 6 7 7 7 6 5 3 1 2 3 2 1 3 3 3 8 8 8 6 6 5 5 6
6 4 4 4 4 3 2 3 3 1 3 3 3 4 3 4 3 3 1 2 3 4 4 3 2 1 2 1 2 4 1 1 2 3 3 9 11 11 9 7 6 6 5
4 4 6 5 5 4 2 2 2 1 1 1 1 2 2 2 1 1 1 2 2 3 1 2 3 2 2 1 1 2 2 3 3 3 6 11 13 15 12 11 10 9 7
6 6 6 6 5 5 2 3 3 2 2 2 2 2 3 2 1 1 1 2 2 1 3 2 2 3 4 4 4 5 4 4 3 4 6 11 16 17 15 14 13 12 10
7 6 7 6 6 4 4 3 3 3 3 3 3 3 3 3 3 3 3 2 3 2 3 3 3 4 4 4 4 5 6 6 6 4 4 12 15 17 16 15 15 14 13
8 7 6 7 6 5 4 4 4 3 3 3 3 3 4 3 3 3 3 3 4 3 3 3 3 3 4 4 6 4 6 6 6 5 5 6 14 17 18 16 15 16 15
8 7 8 7 6 6 6 5 3 3 3 3 3 4 5 5 4 4 3 3 5 3 3 2 3 3 4 3 6 5 5 6 5 6 5 4 6 16 19 18 17 15 15
7 9 7 9 8 7 6 4 3 3 3 3 3 3 5 5 5 4 4 4 3 3 2 2 2 4 4 3 3 4 4 5 6 6 5 4 5 5 11 18 18 17 17
11 8 7 7 7 7 5 3 3 4 3 3 2 2 3 4 4 4 4 4 4 3 3 3 3 2 3 3 4 3 4 4 4 4 7 4 3 5 5 11 17 17 18
8 7 6 5 6 5 3 1 1 2 2 2 2 2 4 3 4 3 3 3 2 2 2 2 4 3 4 3 4 4 3 3 2 1 2 3 5 7 6 6 6 9 16
7 8 7 6 6 5 3 2 1 2 2 2 2 4 5 3 4 4 2 3 2 3 3 3 1 2 2 2 2 0 1 2 3 2 1 1 3 3 4 4 2 3 6
12 9 7 8 7 5 3 2 2 2 1 1 2 3 2 2 2 3 4 4 3 2 3 3 3 2 2 2 1 1 2 3 2 2 2 2 3 3 4 5 6 7 5
11 12 12 9 8 6 6 3 2 2 2 1 0 1 2 1 3 2 3 3 3 1 1 1 1 2 2 0 3 2 1 3 2 2 2 2 2 2 4 4 5 8 7
12 8 10 8 9 7 7 4 5 4 4 3 3 2 3 1 2 2 2 3 3 2 1 1 1 1 2 2 1 1 1 1 1 2 2 2 3 4 6 5 6 8 7
11 12 10 7 3 6 6 6 4 3 2 2 2 5 3 0 1 3 3 4 4 2 2 2 2 1 1 2 1 1 1 1 1 1 2 3 2 1 3 4 6 7 7
8 10 8 9 9 7 7 7 7 7 5 3 3 3 3 2 2 3 4 4 3 3 2 2 2 3 2 2 1 2 1 1 0 1 1 2 3 3 1 2 4 5 5
Wind_Direction
189 148 127 116 108 100 102 114 124 110 93 87 86 111 157 151 139 130 125 127 125 141 108 92 85 70 67 108 97 95 100 103 106 109 104 100 97 93 88 84 82 82 87
127 150 140 112 102 98 103 117 125 117 106 94 79 62 149 151 147 138 130 114 118 123 119 94 87 63 72 99 98 103 106 110 111 109 104 99 101 94 94 94 90 86 82
117 143 119 107 102 95 99 110 131 122 105 84 66 63 102 123 126 116 116 105 92 119 76 97 94 75 105 97 105 108 112 108 99 99 93 89 97 97 97 98 95 93 87
119 119 116 117 105 100 105 117 129 126 109 89 81 76 81 105 121 107 103 93 81 78 114 122 113 110 108 106 103 102 103 104 105 101 88 94 98 94 101 94 100 101 100
113 130 137 120 107 103 102 118 121 125 121 117 98 86 86 95 113 113 103 101 113 104 107 118 113 112 112 111 111 107 110 107 110 100 94 89 87 108 108 109 100 99 106
133 138 134 129 124 107 106 110 115 127 132 124 112 92 96 105 116 118 123 143 161 162 129 101 107 105 106 112 119 111 126 91 105 102 106 115 101 121 116 116 109 106 101
129 150 148 141 123 120 104 113 116 126 119 114 117 120 115 120 120 130 139 150 156 141 107 116 116 110 117 123 118 119 123 117 128 124 108 107 121 144 126 116 115 105 98
125 132 149 142 130 128 120 115 119 118 121 119 117 119 124 124 129 137 144 130 131 124 125 126 122 124 122 116 107 94 244 191 151 143 130 124 221 170 138 127 119 114 110
116 97 93 108 133 125 123 123 124 126 127 127 130 121 119 122 123 131 127 129 126 125 129 127 124 123 113 94 52 27 31 127 142 156 150 161 206 178 156 153 122 125 126
89 85 114 71 94 106 116 137 134 138 147 141 134 127 130 130 131 128 133 140 128 129 127 129 126 132 124 115 33 19 43 153 165 174 169 186 201 197 195 190 158 147 139
161 160 145 124 121 124 129 157 148 147 152 141 129 138 99 60 75 103 133 135 132 129 136 136 139 138 139 93 31 334 47 117 203 203 192 196 207 207 209 199 194 183 159
189 177 177 171 169 161 153 62 96 24 68 86 94 69 74 75 92 114 104 156 151 141 156 147 149 173 66 32 9 329 333 236 194 218 226 218 210 219 213 207 210 203 189
200 184 178 173 179 183 172 131 127 102 126 107 134 111 67 62 33 29 11 345 8 323 6 353 347 348 300 247 236 270 285 278 248 236 235 222 222 223 217 205 208 206 211
193 195 167 179 178 196 188 174 178 179 194 194 198 180 163 181 222 260 269 278 284 268 263 263 269 283 292 281 269 268 256 256 262 259 250 233 223 228 223 212 206 208 209
193 198 185 176 181 192 197 183 194 209 199 208 206 198 192 201 213 207 229 247 249 254 236 258 268 265 268 287 279 274 280 265 258 259 253 254 231 226 228 220 206 207 211
189 201 186 187 185 175 196 197 202 203 216 208 226 220 217 220 228 228 226 231 241 223 233 231 248 282 289 280 274 269 275 265 256 243 248 247 248 226 221 229 216 207 210
197 187 188 186 182 186 199 200 212 215 208 226 238 228 223 212 224 239 242 249 249 228 235 244 266 273 272 282 270 267 265 268 260 248 244 240 242 234 222 219 219 214 210
186 190 170 196 191 196 195 199 196 213 211 227 224 227 235 226 217 216 219 231 234 216 203 217 246 267 263 255 268 270 281 273 270 257 241 228 232 241 227 222 216 216 210
189 176 179 187 184 201 188 181 216 222 214 228 246 227 245 245 235 222 235 246 216 212 213 206 230 220 278 274 268 282 271 262 276 282 265 248 233 241 234 231 226 220 219
181 168 174 200 190 156 146 139 197 254 235 213 225 241 242 235 238 232 261 271 254 218 234 214 231 204 237 264 269 273 288 293 286 270 318 266 212 238 239 232 238 239 234
166 162 182 185 192 146 133 161 239 222 171 225 221 245 235 230 251 226 230 244 220 195 219 221 197 223 275 255 261 202 248 272 292 314 344 316 274 253 242 234 252 252 250
181 174 185 197 187 175 157 157 170 159 189 164 187 274 273 242 286 240 248 214 213 200 213 202 180 188 239 183 165 87 310 320 322 331 333 296 255 269 253 244 234 239 234
179 187 194 190 199 189 165 140 118 94 79 111 66 254 290 297 267 264 186 166 182 162 232 245 184 197 236 185 210 183 206 248 326 334 336 318 288 268 268 268 249 249 238
192 190 193 184 196 192 164 173 182 179 196 194 182 172 151 262 343 255 159 97 73 82 90 100 96 209 189 212 179 166 116 154 159 327 321 295 251 257 262 255 240 241 230
176 184 188 171 175 205 181 185 182 226 199 151 161 156 164 177 92 120 119 113 110 97 66 54 50 110 173 173 180 162 129 88 112 169 292 315 310 213 250 260 249 230 209
161 166 166 169 209 194 180 190 194 206 211 187 147 173 166 174 151 116 99 89 80 69 50 25 27 34 53 67 49 48 37 49 318 308 278 293 280 291 242 285 274 236 217